Northwest Alabama Regional Airport
KMSL : now visible

Airfield :











YOU CAN JOIN US ON...

 
LOGIN :

Register | Disclaimer

   EN    FR    IT 

 









Legend :    VFR   Marginal VFR   IFR   Intensive IFR   Very Intensive IFR
Visi :
Ceiling :
>= 8 km
>= 3000ft
5 to 8 km
1000 to 3000 ft
1500m to 5 km
500 to 1000 ft
800 to 1500m
200 to 500 ft
< 800m
< 200 ft
Symbols :   Thunderstorms  Fog  Heavy snow  Heavy precipitations  Wind > 20 kt







- Airport Elevation : 551 ft
- IATA code : MSL


KMSL - Northwest Alabama Regional

CURRENT METAR :
  • 201953Z AUTO VRB06KT 10SM CLR 32/14 A3017 RMK AO2 SLP210 T03170144

EXPIRED METARs :
  • 201853Z AUTO 12007KT 10SM CLR 32/14 A3019 RMK AO2 SLP217 T03170139
  • 201753Z AUTO 17008KT 10SM CLR 31/13 A3022 RMK AO2 SLP225 T03060133 10311 20211 58012

TAF KMSL
Valid from the 20 at 18:00 until the 21 at 18:00 UTC


201720Z 2018/2118 15008G15KT P6SM SCT060 BKN250
FM210100 13004KT P6SM SCT250
FM211300 15005KT P6SM SKC
No reported NOTAMs for that airfield.



MET'MAP, your aeronautical weather chart ! - Copyright ORBIFLY December 2007 - Disclaimer

ORBIFLY MET'MAP TEAM :

Programming & Development : Alexandra Zaïnal
Concept & Development : Baudouin d'Aumeries
Co-Development & Prog : Marc-Olivier Méhu
Technical & hardware support : Manuel Goepfert

Contact : metmap@orbifly.com




SOURCES & CREDITS :

   NOAA       Earth
Advisory